Weather History for Hyannis, MA

Change the Weather History Date:

Tuesday, January 8, 2013

  Actual Average Record
Temperature  
Mean Temperature 40 °F -  
Max Temperature 46 °F 39 °F 55 °F (2008)
Min Temperature 34 °F 21 °F -4 °F (1968)
Degree Days  
Heating Degree Days 25    
Moisture  
Dew Point 33 °F    
Average Humidity 78    
Maximum Humidity 89    
Minimum Humidity 58    
Precipitation  
Precipitation 0.00 in - - ()
Sea Level Pressure  
Sea Level Pressure 30.35 in    
Wind  
Wind Speed 10 mph (SW)    
Max Wind Speed 25 mph    
Max Gust Speed 36 mph    
Visibility 10 miles    
Events      
Averages and records for this station are not official NWS values.
T = Trace of Precipitation, MM = Missing Value Source: NWS Daily Summary

Daily Weather History Graph

Daily Weather History Graph

Search for Another Location

Airport:

Trip Planner

Search our weather history database for the weather conditions in past years. The results will help you decide how hot, cold, wet, or windy it might be!

Date:

Astronomy

Jan. 08, 2013 Rise Set
Actual Time 7:07 AM EST 4:28 PM EST
Civil Twilight 6:36 AM EST 4:59 PM EST
Nautical Twilight 6:02 AM EST 5:34 PM EST
Astronomical Twilight 5:28 AM EST 6:07 PM EST
Moon 3:36 AM EST (1/8) 1:27 PM EST (1/8)
Length of Visible Light 10h 22m
Length of Day
9h 20m
Waning Crescent, 14% of the Moon is Illuminated
Jan 8
Waning Crescent
Jan 11
New
Jan 18
First Quarter
Jan 26
Full
Feb 3
Last Quarter

Hourly Weather History & Observations

Time (EST) Temp. Windchill Dew Point Humidity Pressure Visibility Wind Dir Wind Speed Gust Speed Precip Events Conditions
12:56 AM 34.0 °F 29.8 °F 30.9 °F 89% 30.38 in 10.0 mi South 4.6 mph - N/A   Partly Cloudy
1:38 AM 35.6 °F 30.7 °F 32.0 °F 87% 30.38 in 10.0 mi South 5.8 mph - N/A   Scattered Clouds
1:56 AM 36.0 °F 32.1 °F 33.1 °F 89% 30.38 in 10.0 mi South 4.6 mph - N/A   Mostly Cloudy
2:56 AM 37.9 °F 31.5 °F 33.1 °F 83% 30.37 in 10.0 mi South 9.2 mph - N/A   Mostly Cloudy
3:18 AM 37.4 °F 30.8 °F 33.8 °F 87% 30.36 in 10.0 mi SSW 9.2 mph - N/A   Mostly Cloudy
3:26 AM 37.4 °F 30.8 °F 33.8 °F 87% 30.36 in 10.0 mi SSW 9.2 mph - N/A   Mostly Cloudy
3:56 AM 37.0 °F 31.0 °F 34.0 °F 89% 30.35 in 10.0 mi SSW 8.1 mph - N/A   Clear
4:56 AM 37.0 °F 32.4 °F 34.0 °F 89% 30.35 in 10.0 mi SSW 5.8 mph - N/A   Clear
5:56 AM 39.0 °F 32.3 °F 32.0 °F 76% 30.35 in 10.0 mi SSW 10.4 mph - N/A   Scattered Clouds
6:56 AM 37.9 °F 30.9 °F 33.1 °F 83% 30.35 in 10.0 mi SW 10.4 mph - N/A   Partly Cloudy
7:56 AM 41.0 °F 32.5 °F 34.0 °F 76% 30.36 in 10.0 mi WSW 17.3 mph - N/A   Partly Cloudy
8:56 AM 42.1 °F 33.3 °F 33.1 °F 70% 30.38 in 10.0 mi WSW 19.6 mph 28.8 mph N/A   Clear
9:56 AM 44.1 °F 35.0 °F 30.9 °F 60% 30.36 in 10.0 mi WSW 24.2 mph 32.2 mph N/A   Clear
10:56 AM 45.0 °F 36.0 °F 32.0 °F 60% 30.35 in 10.0 mi SW 25.3 mph 31.1 mph N/A   Clear
11:56 AM 46.0 °F 38.0 °F 32.0 °F 58% 30.33 in 10.0 mi WSW 21.9 mph 35.7 mph N/A   Clear
12:56 PM 46.0 °F 38.5 °F 34.0 °F 63% 30.30 in 10.0 mi SW 19.6 mph 31.1 mph N/A   Clear
1:56 PM 46.0 °F 38.8 °F 34.0 °F 63% 30.30 in 10.0 mi WSW 18.4 mph 28.8 mph N/A   Clear
2:56 PM 44.1 °F 37.1 °F 35.1 °F 71% 30.31 in 10.0 mi SW 15.0 mph 24.2 mph N/A   Clear
3:56 PM 43.0 °F 34.5 °F 35.1 °F 74% 30.31 in 10.0 mi SW 19.6 mph 24.2 mph N/A   Clear
4:56 PM 42.1 °F 33.6 °F 35.1 °F 76% 30.30 in 10.0 mi SW 18.4 mph - N/A   Clear
5:56 PM 42.1 °F 34.5 °F 35.1 °F 76% 30.33 in 10.0 mi WSW 15.0 mph - N/A   Clear
6:56 PM 39.9 °F 33.4 °F 34.0 °F 79% 30.35 in 10.0 mi WSW 10.4 mph - N/A   Clear
7:56 PM 39.9 °F 34.5 °F 35.1 °F 83% 30.35 in 10.0 mi WSW 8.1 mph - N/A   Clear
8:56 PM 37.9 °F 33.5 °F 34.0 °F 86% 30.35 in 10.0 mi WSW 5.8 mph - N/A   Clear
9:56 PM 37.9 °F 34.4 °F 34.0 °F 86% 30.35 in 10.0 mi West 4.6 mph - N/A   Clear
10:56 PM 36.0 °F 31.1 °F 33.1 °F 89% 30.34 in 10.0 mi WSW 5.8 mph - N/A   Clear
11:56 PM 35.1 °F 29.3 °F 32.0 °F 89% 30.36 in 9.0 mi WSW 6.9 mph - N/A   Clear